Year,Month,Day,Hour,Minute,Value (Times are PST for temperature in C)
2018,04,27,00,00,11.30
2018,04,27,00,01,11.20
2018,04,27,00,02,11.20
2018,04,27,00,03,11.20
2018,04,27,00,04,11.20
2018,04,27,00,05,11.20
2018,04,27,00,06,11.20
2018,04,27,00,07,11.20
2018,04,27,00,08,11.20
2018,04,27,00,09,11.10
2018,04,27,00,10,11.10
2018,04,27,00,11,11.10
2018,04,27,00,12,11.00
2018,04,27,00,13,11.00
2018,04,27,00,14,11.00
2018,04,27,00,15,11.00
2018,04,27,00,16,11.00
2018,04,27,00,17,11.00
2018,04,27,00,18,11.00
2018,04,27,00,19,10.90
2018,04,27,00,20,10.90
2018,04,27,00,21,10.90
2018,04,27,00,22,10.90
2018,04,27,00,23,10.90
2018,04,27,00,24,10.80
2018,04,27,00,25,10.80
2018,04,27,00,26,10.80
2018,04,27,00,27,10.80
2018,04,27,00,28,10.80
2018,04,27,00,29,10.80
2018,04,27,00,30,10.70
2018,04,27,00,31,10.70
2018,04,27,00,32,10.70
2018,04,27,00,33,10.60
2018,04,27,00,34,10.60
2018,04,27,00,35,10.60
2018,04,27,00,36,10.60
2018,04,27,00,37,10.60
2018,04,27,00,38,10.60
2018,04,27,00,39,10.50
2018,04,27,00,40,10.50
2018,04,27,00,41,10.50
2018,04,27,00,42,10.50
2018,04,27,00,43,10.40
2018,04,27,00,44,10.40
2018,04,27,00,45,10.40
2018,04,27,00,46,10.40
2018,04,27,00,47,10.30
2018,04,27,00,48,10.30
2018,04,27,00,49,10.30
2018,04,27,00,50,10.30
2018,04,27,00,51,10.30
2018,04,27,00,52,10.30
2018,04,27,00,53,10.30
2018,04,27,00,54,10.20
2018,04,27,00,55,10.20
2018,04,27,00,56,10.20
2018,04,27,00,57,10.20
2018,04,27,00,58,10.20
2018,04,27,00,59,10.20
2018,04,27,01,00,10.10
2018,04,27,01,01,10.20
2018,04,27,01,02,10.20
2018,04,27,01,03,10.10
2018,04,27,01,04,10.10
2018,04,27,01,05,10.10
2018,04,27,01,06,10.10
2018,04,27,01,07,10.00
2018,04,27,01,08,10.00
2018,04,27,01,09,10.00
2018,04,27,01,10,9.90
2018,04,27,01,11,9.90
2018,04,27,01,12,9.80
2018,04,27,01,13,9.80
2018,04,27,01,14,9.80
2018,04,27,01,15,9.80
2018,04,27,01,16,9.80
2018,04,27,01,17,9.80
2018,04,27,01,18,9.80
2018,04,27,01,19,9.80
2018,04,27,01,20,9.80
2018,04,27,01,21,9.80
2018,04,27,01,22,9.80
2018,04,27,01,23,9.80
2018,04,27,01,24,9.70
2018,04,27,01,25,9.70
2018,04,27,01,26,9.70
2018,04,27,01,27,9.70
2018,04,27,01,28,9.70
2018,04,27,01,29,9.70
2018,04,27,01,30,9.60
2018,04,27,01,31,9.60
2018,04,27,01,32,9.60
2018,04,27,01,33,9.60
2018,04,27,01,34,9.50
2018,04,27,01,35,9.50
2018,04,27,01,36,9.50
2018,04,27,01,37,9.40
2018,04,27,01,38,9.40
2018,04,27,01,39,9.40
2018,04,27,01,40,9.40
2018,04,27,01,41,9.40
2018,04,27,01,42,9.40
2018,04,27,01,43,9.40
2018,04,27,01,44,9.30
2018,04,27,01,45,9.30
2018,04,27,01,46,9.30
2018,04,27,01,47,9.30
2018,04,27,01,48,9.30
2018,04,27,01,49,9.30
2018,04,27,01,50,9.30
2018,04,27,01,51,9.20
2018,04,27,01,52,9.20
2018,04,27,01,53,9.20
2018,04,27,01,54,9.20
2018,04,27,01,55,9.20
2018,04,27,01,56,9.10
2018,04,27,01,57,9.10
2018,04,27,01,58,9.10
2018,04,27,01,59,9.10
2018,04,27,02,00,9.10
2018,04,27,02,01,9.00
2018,04,27,02,02,9.00
2018,04,27,02,03,9.00
2018,04,27,02,04,8.90
2018,04,27,02,05,8.90
2018,04,27,02,06,8.90
2018,04,27,02,07,8.90
2018,04,27,02,08,8.90
2018,04,27,02,09,8.90
2018,04,27,02,10,8.90
2018,04,27,02,11,8.90
2018,04,27,02,12,8.90
2018,04,27,02,13,8.90
2018,04,27,02,14,8.90
2018,04,27,02,15,8.90
2018,04,27,02,16,8.90
2018,04,27,02,17,8.80
2018,04,27,02,18,8.80
2018,04,27,02,19,8.80
2018,04,27,02,20,8.80
2018,04,27,02,21,8.80
2018,04,27,02,22,8.80
2018,04,27,02,23,8.80
2018,04,27,02,24,8.80
2018,04,27,02,25,8.80
2018,04,27,02,26,8.80
2018,04,27,02,27,8.80
2018,04,27,02,28,8.80
2018,04,27,02,29,8.70
2018,04,27,02,30,8.70
2018,04,27,02,31,8.70
2018,04,27,02,32,8.70
2018,04,27,02,33,8.60
2018,04,27,02,34,8.60
2018,04,27,02,35,8.60
2018,04,27,02,36,8.60
2018,04,27,02,37,8.60
2018,04,27,02,38,8.60
2018,04,27,02,39,8.60
2018,04,27,02,40,8.50
2018,04,27,02,41,8.50
2018,04,27,02,42,8.50
2018,04,27,02,43,8.50
2018,04,27,02,44,8.50
2018,04,27,02,45,8.50
2018,04,27,02,46,8.40
2018,04,27,02,47,8.40
2018,04,27,02,48,8.40
2018,04,27,02,49,8.40
2018,04,27,02,50,8.40
2018,04,27,02,51,8.40
2018,04,27,02,52,8.40
2018,04,27,02,53,8.40
2018,04,27,02,54,8.40
2018,04,27,02,55,8.30
2018,04,27,02,56,8.30
2018,04,27,02,57,8.30
2018,04,27,02,58,8.30
2018,04,27,02,59,8.30
2018,04,27,03,00,8.30
2018,04,27,03,01,8.20
2018,04,27,03,02,8.20
2018,04,27,03,03,8.20
2018,04,27,03,04,8.20
2018,04,27,03,05,8.20
2018,04,27,03,06,8.10
2018,04,27,03,07,8.10
2018,04,27,03,08,8.10
2018,04,27,03,09,8.10
2018,04,27,03,10,8.10
2018,04,27,03,11,8.10
2018,04,27,03,12,8.10
2018,04,27,03,13,8.10
2018,04,27,03,14,8.10
2018,04,27,03,15,8.00
2018,04,27,03,16,8.00
2018,04,27,03,17,8.00
2018,04,27,03,18,8.00
2018,04,27,03,19,8.00
2018,04,27,03,20,7.90
2018,04,27,03,21,7.90
2018,04,27,03,22,7.90
2018,04,27,03,23,7.90
2018,04,27,03,24,7.90
2018,04,27,03,25,7.90
2018,04,27,03,26,7.90
2018,04,27,03,27,7.90
2018,04,27,03,28,7.90
2018,04,27,03,29,7.90
2018,04,27,03,30,7.90
2018,04,27,03,31,7.90
2018,04,27,03,32,7.90
2018,04,27,03,33,7.90
2018,04,27,03,34,7.90
2018,04,27,03,35,7.80
2018,04,27,03,36,7.80
2018,04,27,03,37,7.80
2018,04,27,03,38,7.80
2018,04,27,03,39,7.80
2018,04,27,03,40,7.80
2018,04,27,03,41,7.70
2018,04,27,03,42,7.70
2018,04,27,03,43,7.70
2018,04,27,03,44,7.70
2018,04,27,03,45,7.70
2018,04,27,03,46,7.70
2018,04,27,03,47,7.70
2018,04,27,03,48,7.70
2018,04,27,03,49,7.70
2018,04,27,03,50,7.60
2018,04,27,03,51,7.60
2018,04,27,03,52,7.60
2018,04,27,03,53,7.60
2018,04,27,03,54,7.60
2018,04,27,03,55,7.60
2018,04,27,03,56,7.60
2018,04,27,03,57,7.60
2018,04,27,03,58,7.60
2018,04,27,03,59,7.50
2018,04,27,04,00,7.50
2018,04,27,04,01,7.50
2018,04,27,04,02,7.50
2018,04,27,04,03,7.50
2018,04,27,04,04,7.50
2018,04,27,04,05,7.40
2018,04,27,04,06,7.40
2018,04,27,04,07,7.40
2018,04,27,04,08,7.40
2018,04,27,04,09,7.40
2018,04,27,04,10,7.30
2018,04,27,04,11,7.30
2018,04,27,04,12,7.30
2018,04,27,04,13,7.30
2018,04,27,04,14,7.30
2018,04,27,04,15,7.30
2018,04,27,04,16,7.30
2018,04,27,04,17,7.30
2018,04,27,04,18,7.30
2018,04,27,04,19,7.30
2018,04,27,04,20,7.30
2018,04,27,04,21,7.30
2018,04,27,04,22,7.30
2018,04,27,04,23,7.20
2018,04,27,04,24,7.20
2018,04,27,04,25,7.20
2018,04,27,04,26,7.20
2018,04,27,04,27,7.20
2018,04,27,04,28,7.20
2018,04,27,04,29,7.20
2018,04,27,04,30,7.20
2018,04,27,04,31,7.20
2018,04,27,04,32,7.20
2018,04,27,04,33,7.20
2018,04,27,04,34,7.20
2018,04,27,04,35,7.20
2018,04,27,04,36,7.20
2018,04,27,04,37,7.20
2018,04,27,04,38,7.10
2018,04,27,04,39,7.10
2018,04,27,04,40,7.10
2018,04,27,04,41,7.10
2018,04,27,04,42,7.10
2018,04,27,04,43,7.10
2018,04,27,04,44,7.00
2018,04,27,04,45,7.00
2018,04,27,04,46,7.00
2018,04,27,04,47,7.00
2018,04,27,04,48,6.90
2018,04,27,04,49,6.90
2018,04,27,04,50,6.90
2018,04,27,04,51,6.90
2018,04,27,04,52,6.90
2018,04,27,04,53,6.90
2018,04,27,04,54,6.90
2018,04,27,04,55,6.80
2018,04,27,04,56,6.80
2018,04,27,04,57,6.80
2018,04,27,04,58,6.80
2018,04,27,04,59,6.90
2018,04,27,05,00,6.90
2018,04,27,05,01,6.90
2018,04,27,05,02,6.90
2018,04,27,05,03,6.90
2018,04,27,05,04,6.90
2018,04,27,05,05,6.90
2018,04,27,05,06,6.90
2018,04,27,05,07,6.90
2018,04,27,05,08,6.90
2018,04,27,05,09,6.80
2018,04,27,05,10,6.80
2018,04,27,05,11,6.80
2018,04,27,05,12,6.80
2018,04,27,05,13,6.80
2018,04,27,05,14,6.80
2018,04,27,05,15,6.80
2018,04,27,05,16,6.70
2018,04,27,05,17,6.70
2018,04,27,05,18,6.70
2018,04,27,05,19,6.70
2018,04,27,05,20,6.70
2018,04,27,05,21,6.70
2018,04,27,05,22,6.60
2018,04,27,05,23,6.60
2018,04,27,05,24,6.60
2018,04,27,05,25,6.60
2018,04,27,05,26,6.60
2018,04,27,05,27,6.60
2018,04,27,05,28,6.60
2018,04,27,05,29,6.60
2018,04,27,05,30,6.60
2018,04,27,05,31,6.60
2018,04,27,05,32,6.60
2018,04,27,05,33,6.60
2018,04,27,05,34,6.50
2018,04,27,05,35,6.50
2018,04,27,05,36,6.50
2018,04,27,05,37,6.50
2018,04,27,05,38,6.50
2018,04,27,05,39,6.50
2018,04,27,05,40,6.40
2018,04,27,05,41,6.40
2018,04,27,05,42,6.40
2018,04,27,05,43,6.40
2018,04,27,05,44,6.40
2018,04,27,05,45,6.40
2018,04,27,05,46,6.40
2018,04,27,05,47,6.40
2018,04,27,05,48,6.40
2018,04,27,05,49,6.40
2018,04,27,05,50,6.40
2018,04,27,05,51,6.40
2018,04,27,05,52,6.40
2018,04,27,05,53,6.40
2018,04,27,05,54,6.40
2018,04,27,05,55,6.40
2018,04,27,05,56,6.40
2018,04,27,05,57,6.30
2018,04,27,05,58,6.30
2018,04,27,05,59,6.30
2018,04,27,06,00,6.20
2018,04,27,06,01,6.20
2018,04,27,06,02,6.20
2018,04,27,06,03,6.20
2018,04,27,06,04,6.20
2018,04,27,06,05,6.20
2018,04,27,06,06,6.20
2018,04,27,06,07,6.20
2018,04,27,06,08,6.20
2018,04,27,06,09,6.20
2018,04,27,06,10,6.20
2018,04,27,06,11,6.20
2018,04,27,06,12,6.20
2018,04,27,06,13,6.10
2018,04,27,06,14,6.10
2018,04,27,06,15,6.10
2018,04,27,06,16,6.10
2018,04,27,06,17,6.10
2018,04,27,06,18,6.10
2018,04,27,06,19,6.10
2018,04,27,06,20,6.10
2018,04,27,06,21,6.10
2018,04,27,06,22,6.10
2018,04,27,06,23,6.10
2018,04,27,06,24,6.10
2018,04,27,06,25,6.10
2018,04,27,06,26,6.10
2018,04,27,06,27,6.10
2018,04,27,06,28,6.10
2018,04,27,06,29,6.10
2018,04,27,06,30,6.10
2018,04,27,06,31,6.10
2018,04,27,06,32,6.10
2018,04,27,06,33,6.10
2018,04,27,06,34,6.10
2018,04,27,06,35,6.10
2018,04,27,06,36,6.10
2018,04,27,06,37,6.10
2018,04,27,06,38,6.20
2018,04,27,06,39,6.20
2018,04,27,06,40,6.30
2018,04,27,06,41,6.30
2018,04,27,06,42,6.30
2018,04,27,06,43,6.30
2018,04,27,06,44,6.30
2018,04,27,06,45,6.40
2018,04,27,06,46,6.40
2018,04,27,06,47,6.40
2018,04,27,06,48,6.50
2018,04,27,06,49,6.50
2018,04,27,06,50,6.50
2018,04,27,06,51,6.50
2018,04,27,06,52,6.60
2018,04,27,06,53,6.60
2018,04,27,06,54,6.60
2018,04,27,06,55,6.60
2018,04,27,06,56,6.60
2018,04,27,06,57,6.60
2018,04,27,06,58,6.60
2018,04,27,06,59,6.70
2018,04,27,07,00,6.70
2018,04,27,07,01,6.70
2018,04,27,07,02,6.80
2018,04,27,07,03,6.80
2018,04,27,07,04,6.90
2018,04,27,07,05,6.90
2018,04,27,07,06,7.00
2018,04,27,07,07,7.00
2018,04,27,07,08,7.10
2018,04,27,07,09,7.10
2018,04,27,07,10,7.10
2018,04,27,07,11,7.20
2018,04,27,07,12,7.20
2018,04,27,07,13,7.30
2018,04,27,07,14,7.30
2018,04,27,07,15,7.30
2018,04,27,07,16,7.30
2018,04,27,07,17,7.40
2018,04,27,07,18,7.40
2018,04,27,07,19,7.40
2018,04,27,07,20,7.40
2018,04,27,07,21,7.50
2018,04,27,07,22,7.50
2018,04,27,07,23,7.60
2018,04,27,07,24,7.60
2018,04,27,07,25,7.60
2018,04,27,07,26,7.60
2018,04,27,07,27,7.60
2018,04,27,07,28,7.60
2018,04,27,07,29,7.60
2018,04,27,07,30,7.60
2018,04,27,07,31,7.60
2018,04,27,07,32,7.60
2018,04,27,07,33,7.50
2018,04,27,07,34,7.50
2018,04,27,07,35,7.50
2018,04,27,07,36,7.60
2018,04,27,07,37,7.60
2018,04,27,07,38,7.60
2018,04,27,07,39,7.60
2018,04,27,07,40,7.70
2018,04,27,07,41,7.80
2018,04,27,07,42,7.80
2018,04,27,07,43,7.90
2018,04,27,07,44,7.90
2018,04,27,07,45,8.00
2018,04,27,07,46,8.00
2018,04,27,07,47,8.10
2018,04,27,07,48,8.10
2018,04,27,07,49,8.10
2018,04,27,07,50,8.20
2018,04,27,07,51,8.20
2018,04,27,07,52,8.30
2018,04,27,07,53,8.30
2018,04,27,07,54,8.40
2018,04,27,07,55,8.40
2018,04,27,07,56,8.50
2018,04,27,07,57,8.50
2018,04,27,07,58,8.60
2018,04,27,07,59,8.60
2018,04,27,08,00,8.70
2018,04,27,08,01,8.70
2018,04,27,08,02,8.80
2018,04,27,08,03,8.80
2018,04,27,08,04,8.80
2018,04,27,08,05,8.80
2018,04,27,08,06,8.80
2018,04,27,08,07,8.80
2018,04,27,08,08,8.90
2018,04,27,08,09,9.00
2018,04,27,08,10,9.10
2018,04,27,08,11,9.10
2018,04,27,08,12,9.10
2018,04,27,08,13,9.10
2018,04,27,08,14,9.10
2018,04,27,08,15,9.20
2018,04,27,08,16,9.30
2018,04,27,08,17,9.30
2018,04,27,08,18,9.40
2018,04,27,08,19,9.50
2018,04,27,08,20,9.60
2018,04,27,08,21,9.70
2018,04,27,08,22,9.80
2018,04,27,08,23,9.90
2018,04,27,08,24,10.00
2018,04,27,08,25,10.10
2018,04,27,08,26,10.20
2018,04,27,08,27,10.30
2018,04,27,08,28,10.30
2018,04,27,08,29,10.40
2018,04,27,08,30,10.40
2018,04,27,08,31,10.50
2018,04,27,08,32,10.60
2018,04,27,08,33,10.60
2018,04,27,08,34,10.70
2018,04,27,08,35,10.70
2018,04,27,08,36,10.70
2018,04,27,08,37,10.70
2018,04,27,08,38,10.80
2018,04,27,08,39,10.80
2018,04,27,08,40,10.80
2018,04,27,08,41,10.90
2018,04,27,08,42,11.00
2018,04,27,08,43,11.00
2018,04,27,08,44,11.00
2018,04,27,08,45,11.00
2018,04,27,08,46,11.00
2018,04,27,08,47,11.10
2018,04,27,08,48,11.10
2018,04,27,08,49,11.20
2018,04,27,08,50,11.20
2018,04,27,08,51,11.10
2018,04,27,08,52,11.10
2018,04,27,08,53,11.20
2018,04,27,08,54,11.20
2018,04,27,08,55,11.20
2018,04,27,08,56,11.20
2018,04,27,08,57,11.30
2018,04,27,08,58,11.40
2018,04,27,08,59,11.50
2018,04,27,09,00,11.60
2018,04,27,09,01,11.70
2018,04,27,09,02,11.80
2018,04,27,09,03,11.80
2018,04,27,09,04,11.90
2018,04,27,09,05,11.90
2018,04,27,09,06,11.90
2018,04,27,09,07,12.00
2018,04,27,09,08,12.00
2018,04,27,09,09,12.00
2018,04,27,09,10,12.10
2018,04,27,09,11,12.10
2018,04,27,09,12,12.10
2018,04,27,09,13,12.10
2018,04,27,09,14,12.10
2018,04,27,09,15,12.20
2018,04,27,09,16,12.30
2018,04,27,09,17,12.30
2018,04,27,09,18,12.40
2018,04,27,09,19,12.40
2018,04,27,09,20,12.40
2018,04,27,09,21,12.40
2018,04,27,09,22,12.40
2018,04,27,09,23,12.40
2018,04,27,09,24,12.40
2018,04,27,09,25,12.40
2018,04,27,09,26,12.40
2018,04,27,09,27,12.50
2018,04,27,09,28,12.60
2018,04,27,09,29,12.60
2018,04,27,09,30,12.60
2018,04,27,09,31,12.60
2018,04,27,09,32,12.60
2018,04,27,09,33,12.50
2018,04,27,09,34,12.50
2018,04,27,09,35,12.40
2018,04,27,09,36,12.40
2018,04,27,09,37,12.50
2018,04,27,09,38,12.50
2018,04,27,09,39,12.60
2018,04,27,09,40,12.60
2018,04,27,09,41,12.70
2018,04,27,09,42,12.70
2018,04,27,09,43,12.60
2018,04,27,09,44,12.60
2018,04,27,09,45,12.60
2018,04,27,09,46,12.60
2018,04,27,09,47,12.70
2018,04,27,09,48,12.70
2018,04,27,09,49,12.70
2018,04,27,09,50,12.70
2018,04,27,09,51,12.70
2018,04,27,09,52,12.80
2018,04,27,09,53,12.80
2018,04,27,09,54,12.80
2018,04,27,09,55,12.80
2018,04,27,09,56,12.80
2018,04,27,09,57,12.80
2018,04,27,09,58,12.90
2018,04,27,09,59,13.00
2018,04,27,10,00,13.00
2018,04,27,10,01,13.10
2018,04,27,10,02,13.20
2018,04,27,10,03,13.30
2018,04,27,10,04,13.40
2018,04,27,10,05,13.40
2018,04,27,10,06,13.50
2018,04,27,10,07,13.50
2018,04,27,10,08,13.60
2018,04,27,10,09,13.70
2018,04,27,10,10,13.80
2018,04,27,10,11,13.80
2018,04,27,10,12,13.80
2018,04,27,10,13,13.70
2018,04,27,10,14,13.70
2018,04,27,10,15,13.70
2018,04,27,10,16,13.70
2018,04,27,10,17,13.70
2018,04,27,10,18,13.70
2018,04,27,10,19,13.70
2018,04,27,10,20,13.80
2018,04,27,10,21,13.80
2018,04,27,10,22,13.80
2018,04,27,10,23,13.90
2018,04,27,10,24,14.00
2018,04,27,10,25,14.10
2018,04,27,10,26,14.20
2018,04,27,10,27,14.20
2018,04,27,10,28,14.20
2018,04,27,10,29,14.30
2018,04,27,10,30,14.40
2018,04,27,10,31,14.40
2018,04,27,10,32,14.40
2018,04,27,10,33,14.40
2018,04,27,10,34,14.30
2018,04,27,10,35,14.30
2018,04,27,10,36,14.40
2018,04,27,10,37,14.30
2018,04,27,10,38,14.30
2018,04,27,10,39,14.40
2018,04,27,10,40,14.40
2018,04,27,10,41,14.40
2018,04,27,10,42,14.40
2018,04,27,10,43,14.50
2018,04,27,10,44,14.50
2018,04,27,10,45,14.60
2018,04,27,10,46,14.60
2018,04,27,10,47,14.60
2018,04,27,10,48,14.60
2018,04,27,10,49,14.70
2018,04,27,10,50,14.80
2018,04,27,10,51,14.90
2018,04,27,10,52,15.00
2018,04,27,10,53,15.00
2018,04,27,10,54,15.00
2018,04,27,10,55,15.10
2018,04,27,10,56,15.20
2018,04,27,10,57,15.30
2018,04,27,10,58,15.30
2018,04,27,10,59,15.40
2018,04,27,11,00,15.50
2018,04,27,11,01,15.60
2018,04,27,11,02,15.50
2018,04,27,11,03,15.50
2018,04,27,11,04,15.40
2018,04,27,11,05,15.40
2018,04,27,11,06,15.40
2018,04,27,11,07,15.40
2018,04,27,11,08,15.40
2018,04,27,11,09,15.40
2018,04,27,11,10,15.40
2018,04,27,11,11,15.50
2018,04,27,11,12,15.50
2018,04,27,11,13,15.50
2018,04,27,11,14,15.50
2018,04,27,11,15,15.40
2018,04,27,11,16,15.40
2018,04,27,11,17,15.50
2018,04,27,11,18,15.50
2018,04,27,11,19,15.40
2018,04,27,11,20,15.50
2018,04,27,11,21,15.50
2018,04,27,11,22,15.60
2018,04,27,11,23,15.60
2018,04,27,11,24,15.70
2018,04,27,11,25,15.70
2018,04,27,11,26,15.70
2018,04,27,11,27,15.70
2018,04,27,11,28,15.70
2018,04,27,11,29,15.70
2018,04,27,11,30,15.70
2018,04,27,11,31,15.70
2018,04,27,11,32,15.70
2018,04,27,11,33,15.80
2018,04,27,11,34,15.80
2018,04,27,11,35,15.90
2018,04,27,11,36,16.00
2018,04,27,11,37,15.90
2018,04,27,11,38,16.00
2018,04,27,11,39,16.10
2018,04,27,11,40,16.20
2018,04,27,11,41,16.30
2018,04,27,11,42,16.40
2018,04,27,11,43,16.40
2018,04,27,11,44,16.40
2018,04,27,11,45,16.50
2018,04,27,11,46,16.50
2018,04,27,11,47,16.60
2018,04,27,11,48,16.70
2018,04,27,11,49,16.70
2018,04,27,11,50,16.80
2018,04,27,11,51,16.80
2018,04,27,11,52,16.90
2018,04,27,11,53,17.00
2018,04,27,11,54,17.00
2018,04,27,11,55,17.10
2018,04,27,11,56,17.20
2018,04,27,11,57,17.20
2018,04,27,11,58,17.20
2018,04,27,11,59,17.30
2018,04,27,12,00,17.30
2018,04,27,12,01,17.40
2018,04,27,12,02,17.40
2018,04,27,12,03,17.40
2018,04,27,12,04,17.50
2018,04,27,12,05,17.60
2018,04,27,12,06,17.60
2018,04,27,12,07,17.70
2018,04,27,12,08,17.80
2018,04,27,12,09,17.90
2018,04,27,12,10,18.00
2018,04,27,12,11,18.00
2018,04,27,12,12,18.10
2018,04,27,12,13,18.20
2018,04,27,12,14,18.20
2018,04,27,12,15,18.30
2018,04,27,12,16,18.30
2018,04,27,12,17,18.40
2018,04,27,12,18,18.50
2018,04,27,12,19,18.50
2018,04,27,12,20,18.50
2018,04,27,12,21,18.60
2018,04,27,12,22,18.60
2018,04,27,12,23,18.70
2018,04,27,12,24,18.70
2018,04,27,12,25,18.80
2018,04,27,12,26,18.80
2018,04,27,12,27,18.90
2018,04,27,12,28,19.00
2018,04,27,12,29,19.10
2018,04,27,12,30,19.20
2018,04,27,12,31,19.30
2018,04,27,12,32,19.30
2018,04,27,12,33,19.30
2018,04,27,12,34,19.30
2018,04,27,12,35,19.30
2018,04,27,12,36,19.30
2018,04,27,12,37,19.20
2018,04,27,12,38,19.20
2018,04,27,12,39,19.10
2018,04,27,12,40,19.10
2018,04,27,12,41,19.10
2018,04,27,12,42,19.20
2018,04,27,12,43,19.20
2018,04,27,12,44,19.30
2018,04,27,12,45,19.30
2018,04,27,12,46,19.20
2018,04,27,12,47,19.20
2018,04,27,12,48,19.20
2018,04,27,12,49,19.20
2018,04,27,12,50,19.30
2018,04,27,12,51,19.30
2018,04,27,12,52,19.20
2018,04,27,12,53,19.20
2018,04,27,12,54,19.10
2018,04,27,12,55,19.10
2018,04,27,12,56,19.20
2018,04,27,12,57,19.20
2018,04,27,12,58,19.20
2018,04,27,12,59,19.20
2018,04,27,13,00,19.20
2018,04,27,13,01,19.20
2018,04,27,13,02,19.20
2018,04,27,13,03,19.20
2018,04,27,13,04,19.20
2018,04,27,13,05,19.20
2018,04,27,13,06,19.30
2018,04,27,13,07,19.30
2018,04,27,13,08,19.40
2018,04,27,13,09,19.50
2018,04,27,13,10,19.60
2018,04,27,13,11,19.70
2018,04,27,13,12,19.70
2018,04,27,13,13,19.70
2018,04,27,13,14,19.70
2018,04,27,13,15,19.70
2018,04,27,13,16,19.60
2018,04,27,13,17,19.50
2018,04,27,13,18,19.50
2018,04,27,13,19,19.40
2018,04,27,13,20,19.40
2018,04,27,13,21,19.50
2018,04,27,13,22,19.50
2018,04,27,13,23,19.50
2018,04,27,13,24,19.50
2018,04,27,13,25,19.40
2018,04,27,13,26,19.40
2018,04,27,13,27,19.30
2018,04,27,13,28,19.30
2018,04,27,13,29,19.30
2018,04,27,13,30,19.30
2018,04,27,13,31,19.40
2018,04,27,13,32,19.50
2018,04,27,13,33,19.60
2018,04,27,13,34,19.60
2018,04,27,13,35,19.60
2018,04,27,13,36,19.60
2018,04,27,13,37,19.60
2018,04,27,13,38,19.60
2018,04,27,13,39,19.70
2018,04,27,13,40,19.70
2018,04,27,13,41,19.70
2018,04,27,13,42,19.60
2018,04,27,13,43,19.50
2018,04,27,13,44,19.40
2018,04,27,13,45,19.20
2018,04,27,13,46,19.00
2018,04,27,13,47,18.90
2018,04,27,13,48,18.80
2018,04,27,13,49,18.80
2018,04,27,13,50,18.80
2018,04,27,13,51,18.80
2018,04,27,13,52,18.90
2018,04,27,13,53,18.90
2018,04,27,13,54,18.90
2018,04,27,13,55,19.00
2018,04,27,13,56,19.10
2018,04,27,13,57,19.10
2018,04,27,13,58,19.20
2018,04,27,13,59,19.20
2018,04,27,14,00,19.10
2018,04,27,14,01,19.00
2018,04,27,14,02,19.00
2018,04,27,14,03,18.80
2018,04,27,14,04,18.70
2018,04,27,14,05,18.60
2018,04,27,14,06,18.50
2018,04,27,14,07,18.40
2018,04,27,14,08,18.40
2018,04,27,14,09,18.40
2018,04,27,14,10,18.40
2018,04,27,14,11,18.50
2018,04,27,14,12,18.60
2018,04,27,14,13,18.70
2018,04,27,14,14,18.80
2018,04,27,14,15,18.80
2018,04,27,14,16,18.80
2018,04,27,14,17,18.90
2018,04,27,14,18,19.00
2018,04,27,14,19,19.10
2018,04,27,14,20,19.30
2018,04,27,14,21,19.30
2018,04,27,14,22,19.30
2018,04,27,14,23,19.30
2018,04,27,14,24,19.30
2018,04,27,14,25,19.30
2018,04,27,14,26,19.30
2018,04,27,14,27,19.30
2018,04,27,14,28,19.30
2018,04,27,14,29,19.30
2018,04,27,14,30,19.40
2018,04,27,14,31,19.40
2018,04,27,14,32,19.40
2018,04,27,14,33,19.40
2018,04,27,14,34,19.40
2018,04,27,14,35,19.50
2018,04,27,14,36,19.60
2018,04,27,14,37,19.60
2018,04,27,14,38,19.40
2018,04,27,14,39,19.30
2018,04,27,14,40,19.20
2018,04,27,14,41,19.20
2018,04,27,14,42,19.20
2018,04,27,14,43,19.10
2018,04,27,14,44,19.00
2018,04,27,14,45,18.90
2018,04,27,14,46,19.00
2018,04,27,14,47,19.10
2018,04,27,14,48,19.10
2018,04,27,14,49,19.10
2018,04,27,14,50,19.00
2018,04,27,14,51,19.00
2018,04,27,14,52,19.00
2018,04,27,14,53,19.00
2018,04,27,14,54,19.00
2018,04,27,14,55,18.90
2018,04,27,14,56,18.80
2018,04,27,14,57,18.80
2018,04,27,14,58,18.80
2018,04,27,14,59,18.90
2018,04,27,15,00,19.00
2018,04,27,15,01,19.10
2018,04,27,15,02,19.20
2018,04,27,15,03,19.20
2018,04,27,15,04,19.20
2018,04,27,15,05,19.30
2018,04,27,15,06,19.30
2018,04,27,15,07,19.30
2018,04,27,15,08,19.30
2018,04,27,15,09,19.30
2018,04,27,15,10,19.40
2018,04,27,15,11,19.30
2018,04,27,15,12,19.20
2018,04,27,15,13,19.20
2018,04,27,15,14,19.20
2018,04,27,15,15,19.20
2018,04,27,15,16,19.00
2018,04,27,15,17,18.80
2018,04,27,15,18,18.70
2018,04,27,15,19,18.60
2018,04,27,15,20,18.50
2018,04,27,15,21,18.40
2018,04,27,15,22,18.20
2018,04,27,15,23,18.10
2018,04,27,15,24,18.00
2018,04,27,15,25,17.90
2018,04,27,15,26,17.80
2018,04,27,15,27,17.80
2018,04,27,15,28,17.80
2018,04,27,15,29,18.00
2018,04,27,15,30,18.10
2018,04,27,15,31,18.20
2018,04,27,15,32,18.20
2018,04,27,15,33,18.30
2018,04,27,15,34,18.30
2018,04,27,15,35,18.30
2018,04,27,15,36,18.10
2018,04,27,15,37,18.00
2018,04,27,15,38,17.90
2018,04,27,15,39,17.80
2018,04,27,15,40,17.70
2018,04,27,15,41,17.60
2018,04,27,15,42,17.40
2018,04,27,15,43,17.20
2018,04,27,15,44,17.10
2018,04,27,15,45,17.00
2018,04,27,15,46,17.00
2018,04,27,15,47,16.90
2018,04,27,15,48,16.80
2018,04,27,15,49,16.70
2018,04,27,15,50,16.50
2018,04,27,15,51,16.40
2018,04,27,15,52,16.30
2018,04,27,15,53,16.30
2018,04,27,15,54,16.30
2018,04,27,15,55,16.20
2018,04,27,15,56,16.20
2018,04,27,15,57,16.30
2018,04,27,15,58,16.30
2018,04,27,15,59,16.20
2018,04,27,16,00,16.20
2018,04,27,16,01,16.20
2018,04,27,16,02,16.10
2018,04,27,16,03,16.00
2018,04,27,16,04,16.00
2018,04,27,16,05,16.00
2018,04,27,16,06,15.80
2018,04,27,16,07,15.80
2018,04,27,16,08,15.80
2018,04,27,16,09,15.80
2018,04,27,16,10,15.70
2018,04,27,16,11,15.70
2018,04,27,16,12,15.60
2018,04,27,16,13,15.60
2018,04,27,16,14,15.60
2018,04,27,16,15,15.50
2018,04,27,16,16,15.50
2018,04,27,16,17,15.50
2018,04,27,16,18,15.60
2018,04,27,16,19,15.60
2018,04,27,16,20,15.70
2018,04,27,16,21,15.70
2018,04,27,16,22,15.70
2018,04,27,16,23,15.80
2018,04,27,16,24,15.80
2018,04,27,16,25,15.70
2018,04,27,16,26,15.70
2018,04,27,16,27,15.70
2018,04,27,16,28,15.60
2018,04,27,16,29,15.60
2018,04,27,16,30,15.60
2018,04,27,16,31,15.60
2018,04,27,16,32,15.60
2018,04,27,16,33,15.60
2018,04,27,16,34,15.60
2018,04,27,16,35,15.60
2018,04,27,16,36,15.60
2018,04,27,16,37,15.60
2018,04,27,16,38,15.50
2018,04,27,16,39,15.40
2018,04,27,16,40,15.40
2018,04,27,16,41,15.30
2018,04,27,16,42,15.20
2018,04,27,16,43,15.20
2018,04,27,16,44,15.20
2018,04,27,16,45,15.20
2018,04,27,16,46,15.10
2018,04,27,16,47,15.10
2018,04,27,16,48,15.10
2018,04,27,16,49,15.10
2018,04,27,16,50,15.10
2018,04,27,16,51,15.10
2018,04,27,16,52,15.10
2018,04,27,16,53,15.00
2018,04,27,16,54,15.00
2018,04,27,16,55,15.00
2018,04,27,16,56,15.10
2018,04,27,16,57,15.00
2018,04,27,16,58,15.00
2018,04,27,16,59,14.90
2018,04,27,17,00,14.80
2018,04,27,17,01,14.70
2018,04,27,17,02,14.70
2018,04,27,17,03,14.70
2018,04,27,17,04,14.80
2018,04,27,17,05,14.70
2018,04,27,17,06,14.60
2018,04,27,17,07,14.50
2018,04,27,17,08,14.50
2018,04,27,17,09,14.40
2018,04,27,17,10,14.30
2018,04,27,17,11,14.30
2018,04,27,17,12,14.30
2018,04,27,17,13,14.40
2018,04,27,17,14,14.40
2018,04,27,17,15,14.40
2018,04,27,17,16,14.40
2018,04,27,17,17,14.40
2018,04,27,17,18,14.40
2018,04,27,17,19,14.40
2018,04,27,17,20,14.40
2018,04,27,17,21,14.50
2018,04,27,17,22,14.50
2018,04,27,17,23,14.50
2018,04,27,17,24,14.60
2018,04,27,17,25,14.60
2018,04,27,17,26,14.60
2018,04,27,17,27,14.70
2018,04,27,17,28,14.70
2018,04,27,17,29,14.70
2018,04,27,17,30,14.70
2018,04,27,17,31,14.70
2018,04,27,17,32,14.70
2018,04,27,17,33,14.80
2018,04,27,17,34,14.70
2018,04,27,17,35,14.70
2018,04,27,17,36,14.70
2018,04,27,17,37,14.70
2018,04,27,17,38,14.70